SCP
0 0 0 0 0 0 0 0 0 0 0 0 0 0 0 0 0 0 0 0 0 0 0 0 0 0 0 0 0 0 0 0 0 0 0 0 0 0 0 0 0 0 0
0 0 0 0 0 0 0 0 0 0 0 0 0 0 0 0 0 0 0 0 0 0 0 0 0 0 0 0 0 0 0 0 0 0 0 0 0 0 0 0 0 0 0
0 0 0 0 0 0 0 0 0 0 0 0 0 0 0 0 0 0 0 0 0 0 0 0 0 0 0 0 0 0 0 0 0 0 0 0 0 0 0 0 0 0 0
0 0 0 0 0 0 0 0 0 0 0 0 0 0 0 0 0 0 0 0 0 0 0 0 0 0 0 0 0 0 0 0 0 0 0 0 0 0 0 0 0 0 0
0 0 0 0 0 0 0 0 0 0 0 0 0 0 0 0 0 0 0 0 0 0 0 0 0 0 0 0 0 0 0 0 0 0 0 0 0 0 0 0 0 0 0
0 0 0 0 0 0 0 0 0 0 0 0 0 0 0 0 0 0 0 0 0 0 0 0 0 0 0 0 0 0 0 0 0 0 0 0 0 0 0 0 0 0 0
0 0 0 0 0 0 0 0 0 0 0 0 0 0 0 0 0 0 0 0 0 0 0 0 0 0 0 0 0 0 0 0 0 0 0 0 0 0 0 0 0 0 0
0 0 0 0 0 0 0 0 0 0 0 0 0 0 0 0 0 0 0 0 0 0 0 0 0 0 0 0 0 0 0 0 0 0 0 0 0 0 0 0 0 0 0
0 0 0 0 0 0 0 0 0 0 0 0 0 0 0 0 0 0 0 0 0 0 0 0 0 0 0 0 0 0 0 0 0 0 0 0 0 0 0 0 0 0 0
0 0 0 0 0 0 0 0 0 0 0 0 0 0 0 0 0 0 0 0 0 0 0 0 0 0 0 0 0 0 0 0 0 0 0 0 0 0 0 0 0 0 0
0 0 0 0 0 0 0 0 0 0 0 0 0 0 0 0 0 0 0 0 0 0 0 0 0 0 0 0 0 0 0 0 0 0 0 0 0 0 0 0 0 0 0
0 0 0 0 0 0 0 0 0 0 0 0 0 0 0 0 0 0 0 0 0 0 0 0 0 0 0 0 0 0 0 0 0 0 0 0 0 0 0 0 0 0 0
0 0 0 0 0 0 0 0 0 0 0 0 0 0 0 0 0 0 0 0 0 0 0 0 0 0 0 0 0 0 0 0 0 0 0 0 0 0 0 0 0 0 0
0 0 0 0 0 0 0 0 0 0 0 0 0 0 0 0 0 0 0 0 0 0 0 0 0 0 0 0 0 0 0 0 0 0 0 0 0 0 0 0 0 0 0
0 0 0 0 0 0 0 0 0 0 0 0 0 0 0 0 0 0 0 0 0 0 0 0 0 0 0 0 0 0 0 0 0 0 0 0 0 0 0 0 0 0 0
0 0 0 0 0 0 0 0 0 0 0 0 0 0 0 0 0 0 0 0 0 0 0 0 0 0 0 0 0 0 0 0 0 0 0 0 0 0 0 0 0 0 0
0 0 0 0 0 0 0 0 0 0 0 0 0 0 0 0 0 0 0 0 0 0 0 0 0 0 0 0 0 0 0 0 0 0 0 0 0 0 0 0 0 0 0
0 0 0 0 0 0 0 0 0 0 0 0 0 0 0 0 0 0 0 0 0 0 0 0 0 0 0 0 0 0 0 0 0 0 0 0 0 0 0 0 0 0 0
0 0 0 0 0 0 0 0 0 0 0 0 0 0 0 0 0 0 0 0 0 0 0 0 0 0 0 0 0 0 0 0 0 0 0 0 0 0 0 0 0 0 0
0 0 0 0 0 0 0 0 0 0 0 0 0 0 0 0 0 0 0 0 0 0 0 0 0 0 0 0 0 0 0 0 0 0 0 0 0 0 0 0 0 0 0
0 0 0 0 0 0 0 0 0 0 0 0 0 0 0 0 0 0 0 0 0 0 0 0 0 0 0 0 0 0 0 0 0 0 0 0 0 0 0 0 0 0 0
0 0 0 0 0 0 0 0 0 0 0 0 0 0 0 0 0 0 0 0 0 0 0 0 0 0 0 0 0 0 0 0 0 0 0 0 0 0 0 0 0 0 0
0 0 0 0 0 0 0 0 0 0 0 0 0 0 0 0 0 0 0 0 0 0 0 0 0 0 0 0 0 0 0 0 0 0 0 0 0 0 0 0 0 0 0
0 0 0 0 0 0 0 0 0 0 0 0 0 0 0 0 0 0 0 0 0 0 0 0 0 0 0 0 0 0 0 0 0 0 0 0 0 0 0 0 0 0 0
0 0 0 0 0 0 0 0 0 0 0 0 0 0 0 0 0 0 0 0 0 0 0 0 0 0 0 0 0 0 0 0 0 0 0 0 0 0 0 0 0 0 0
0 0 0 0 0 0 0 0 0 0 0 0 0 0 0 0 0 0 0 0 0 0 0 0 0 0 0 0 0 0 0 0 0 0 0 0 0 0 0 0 0 0 0
Wind_Speed
3 2 1 1 1 1 1 1 1 1 1 1 1 1 1 1 1 1 0 1 1 1 1 0 0 1 1 1 1 2 3 3 3 3 3 3 4 4 4 5 5 6 6
3 2 2 2 1 1 1 2 2 2 1 1 1 1 1 1 1 1 1 1 1 1 1 1 1 1 1 1 1 2 2 2 3 3 4 4 4 5 5 5 6 6 7
4 3 2 2 2 1 2 2 2 2 2 1 1 1 1 1 1 1 1 1 1 2 2 2 1 1 1 1 2 2 3 3 3 4 4 4 5 5 6 6 7 7 7
4 3 3 2 2 2 2 2 2 2 1 1 1 0 0 0 1 1 1 1 1 1 2 2 2 2 2 2 3 3 3 4 4 4 5 5 5 6 6 6 7 7 7
4 3 2 2 2 2 2 2 2 2 2 1 1 1 1 0 0 1 1 1 1 1 0 1 2 3 3 3 4 4 4 4 5 5 5 6 6 6 6 7 7 7 7
4 3 2 2 2 2 2 2 3 2 2 2 2 2 1 1 1 1 1 1 1 0 1 1 1 2 3 4 5 5 5 6 6 6 6 7 7 7 7 7 7 7 6
4 4 3 2 2 2 3 3 3 3 2 2 2 2 2 2 2 1 1 1 1 1 1 1 1 1 2 4 5 6 7 7 7 8 8 8 8 8 8 8 7 7 6
4 4 4 3 3 3 3 3 4 2 1 1 2 2 1 2 2 2 1 1 1 1 1 1 1 1 1 1 3 6 7 8 8 8 8 8 8 9 9 8 8 7 6
4 4 4 3 3 3 3 3 4 4 3 1 1 3 3 2 1 2 1 1 1 1 1 1 1 1 1 1 2 4 6 8 8 9 9 9 9 9 8 8 8 7 7
3 4 4 4 3 3 4 4 3 3 4 3 1 0 1 2 2 1 2 2 1 1 1 1 1 1 1 1 2 4 6 7 8 9 9 10 10 9 9 8 8 8 7
3 3 4 4 4 3 4 4 3 3 3 3 3 1 1 1 1 2 2 2 2 1 1 1 1 2 2 2 2 4 6 7 8 8 9 9 9 9 9 9 9 8 8
2 3 3 4 4 3 4 4 4 4 3 2 2 2 3 2 2 2 2 1 2 2 2 1 1 2 2 2 3 5 6 7 7 8 8 8 9 10 10 10 10 8 8
2 3 3 3 3 3 4 4 4 4 3 4 3 2 2 2 2 2 2 1 1 2 2 1 2 1 2 1 2 5 5 7 7 7 8 8 8 9 9 10 10 9 8
3 3 3 4 4 4 4 3 3 3 3 3 3 2 2 2 2 2 2 2 1 1 2 3 2 1 1 2 3 5 4 7 7 7 7 8 8 8 9 9 9 9 8
2 3 3 3 4 4 4 4 3 3 3 3 3 3 2 2 2 2 2 3 3 2 3 2 2 2 2 2 4 3 3 6 7 7 7 7 7 7 8 8 8 8 8
3 3 3 3 3 4 4 4 3 3 3 3 3 3 3 2 2 2 2 2 2 2 3 2 2 2 2 3 5 3 3 7 8 8 8 7 7 7 8 8 8 8 8
4 4 4 4 4 4 4 4 4 4 4 3 3 3 4 3 2 2 2 2 1 2 3 3 2 2 2 3 3 3 3 3 4 8 8 8 7 7 7 7 8 8 8
4 4 4 5 4 4 4 5 5 4 5 5 4 4 4 3 3 2 2 2 2 2 2 3 2 2 3 3 3 3 3 3 3 7 8 7 7 7 7 7 7 7 7
4 4 5 5 5 4 5 5 5 5 5 5 5 5 4 4 4 3 3 2 2 2 2 2 2 2 2 2 2 3 3 3 4 5 6 7 7 7 7 7 7 7 7
4 4 4 4 4 4 4 4 4 4 4 4 4 4 5 5 5 4 3 3 2 2 1 2 2 2 2 1 1 2 3 3 3 4 5 5 6 7 7 7 7 7 8
3 3 4 3 4 4 4 5 4 4 4 4 4 4 5 5 5 5 3 3 3 2 2 2 2 1 1 1 2 2 3 3 4 2 3 3 3 3 3 5 6 7 8
2 2 3 4 4 4 5 6 5 4 4 4 4 3 4 4 5 6 6 5 5 4 3 3 2 3 3 2 2 2 2 2 3 2 2 4 2 3 3 3 6 8 8
2 2 3 4 4 5 6 6 6 4 4 4 4 3 3 3 4 3 4 5 5 5 5 4 4 5 4 4 3 3 3 3 4 3 2 4 3 3 3 4 8 7 8
3 3 3 4 4 4 6 6 5 4 3 4 4 4 4 4 4 3 3 3 3 4 4 3 4 5 4 3 3 3 3 3 3 2 1 3 3 3 4 4 7 7 8
2 3 3 3 3 4 6 6 5 3 3 4 4 4 4 4 5 4 3 3 2 3 3 4 4 4 4 4 2 1 1 1 3 2 1 1 2 3 4 3 5 8 9
3 2 3 3 3 4 6 6 6 3 3 3 3 3 5 5 5 5 4 4 4 3 2 1 2 2 2 3 3 2 2 2 2 3 1 1 1 2 3 3 3 3 5
Wind_Direction
149 148 146 138 137 138 144 134 124 117 120 133 131 128 126 125 128 123 46 60 73 67 57 13 46 55 31 17 39 39 23 13 5 348 342 342 337 331 326 321 321 325 325
156 158 155 154 159 165 158 154 152 137 131 128 124 133 153 151 135 120 111 44 28 27 340 318 322 343 334 11 26 25 9 354 344 342 336 335 333 327 320 313 309 309 312
158 158 159 167 171 151 135 123 118 112 117 110 103 99 130 147 145 131 115 84 12 14 21 346 341 341 357 1 357 355 355 347 335 329 324 323 323 322 321 318 313 310 308
158 154 158 171 163 144 140 131 129 114 111 120 108 56 75 85 124 117 107 98 73 30 15 8 2 352 357 359 350 342 335 333 328 324 319 316 314 313 311 313 312 312 307
160 155 163 167 152 144 145 145 129 122 122 107 95 56 49 63 67 99 99 96 87 72 60 19 15 4 350 342 340 334 328 321 322 321 318 314 310 309 306 305 307 305 303
159 152 154 156 148 143 143 139 129 114 124 118 76 39 14 3 26 96 120 84 65 69 77 47 7 350 347 333 331 329 323 321 320 316 314 310 308 309 304 302 304 303 302
161 157 153 156 155 160 163 151 132 117 106 114 88 39 8 9 26 39 66 72 42 23 46 39 13 349 333 339 333 325 320 318 317 314 308 307 305 304 301 295 297 297 299
168 166 163 169 167 157 150 147 135 131 130 126 126 119 16 347 354 11 22 68 38 22 18 6 343 334 325 321 327 332 325 321 319 318 317 313 306 302 300 294 291 291 296
173 171 169 168 171 164 168 170 156 153 159 165 146 149 159 203 281 329 340 5 5 18 335 319 309 312 309 304 304 322 323 318 317 317 317 317 312 306 304 300 295 294 296
172 172 169 167 169 170 168 178 170 163 156 168 183 125 150 155 161 247 315 322 324 317 313 317 310 299 293 293 305 313 320 322 318 317 316 316 315 312 305 304 298 294 296
173 172 171 170 174 178 175 174 169 165 167 172 173 164 120 102 154 165 229 289 320 298 284 277 277 282 288 289 290 299 315 321 318 319 320 320 318 316 310 306 304 297 297
185 184 176 177 178 181 180 178 176 170 173 170 170 165 164 166 183 168 198 247 275 283 288 271 262 270 288 293 296 312 316 321 321 324 326 324 322 318 312 308 306 298 298
206 207 191 185 183 186 184 179 175 175 173 174 179 184 185 187 176 171 170 217 265 283 291 279 258 266 295 308 305 319 316 321 320 324 327 325 325 325 318 311 308 303 302
207 199 193 188 184 183 180 178 178 182 175 180 188 189 192 201 184 174 171 165 253 292 280 268 284 264 300 305 310 326 313 320 321 323 324 322 320 324 324 320 315 309 305
196 184 190 190 187 184 180 178 187 190 177 185 193 194 201 206 198 189 176 169 173 230 262 254 274 289 306 306 313 321 312 314 323 324 326 325 321 320 322 321 318 315 310
194 180 189 192 192 189 184 182 188 191 184 194 193 191 205 203 197 194 180 183 185 196 242 253 254 281 297 307 308 316 303 314 316 319 321 323 323 318 322 324 322 321 319
192 190 195 196 199 198 193 188 193 190 194 202 199 200 212 198 194 207 187 179 191 188 239 274 271 284 282 292 309 311 302 302 307 314 314 317 321 324 323 326 325 321 318
195 195 192 196 198 198 199 194 196 197 200 206 206 205 214 203 203 209 203 198 204 204 212 262 280 274 271 278 296 300 311 315 306 311 314 318 320 322 325 327 328 332 330
192 190 190 195 197 198 201 200 199 203 207 211 207 206 211 204 211 208 209 212 212 221 215 232 262 269 279 290 313 308 308 310 308 311 314 315 315 317 319 323 325 328 328
191 190 194 195 196 197 201 200 201 204 208 214 214 210 210 209 210 205 208 213 209 210 211 223 252 269 275 288 300 311 317 322 315 317 318 314 311 316 316 318 322 326 329
198 194 192 194 196 199 201 196 201 204 205 211 220 221 219 217 219 215 210 204 198 203 208 223 240 261 269 274 273 279 298 314 307 303 316 315 314 315 317 314 316 321 321
193 192 198 198 205 213 213 209 205 200 204 206 215 224 228 224 229 231 232 224 210 204 208 213 230 241 246 242 259 266 286 313 299 309 325 308 315 303 299 292 306 315 318
190 202 214 207 214 219 218 216 213 201 202 206 207 210 227 240 230 216 233 239 236 233 221 211 222 233 234 228 230 255 262 266 268 286 312 297 311 302 303 305 307 312 319
194 203 214 213 216 225 222 220 217 208 205 208 213 213 219 229 227 210 208 223 229 234 240 230 222 232 233 226 221 232 245 277 282 281 275 280 302 301 307 308 315 323 326
203 206 207 212 218 234 227 219 212 202 206 216 224 222 218 220 229 224 209 218 238 259 268 262 259 257 254 249 231 180 236 292 292 284 257 264 288 305 304 301 312 325 328
208 207 213 221 224 230 228 218 209 197 203 215 224 229 231 225 229 226 209 203 225 242 234 264 276 276 265 249 244 225 206 231 272 274 248 258 287 321 309 296 305 320 327